Regional Weather Roundup
Issued by NWS

Home | Current Version | Previous Version | Text Only | Print | Product List | Glossary Off
Versions: 1 2 3 4 5 6 7 8 9 10 11 12 13 14 15 16 17 18 19 20 21 22 23 24 25 26 27 28 29 30 31 32 33 34 35 36 37 38 39 40 41 42 43 44 45 46 47 48 49 50

000
ASUS43 KMKX 280800
RWRWI

WISCONSIN REGIONAL WEATHER ROUNDUP
NATIONAL WEATHER SERVICE MILWAUKEE/SULLIVAN WI
300 AM CDT TUE JUL 28 2015

NOTE: "FAIR" INDICATES FEW OR NO CLOUDS BELOW 12,000 FEET WITH NO
SIGNIFICANT WEATHER AND/OR OBSTRUCTIONS TO VISIBILITY.

WIZ001-002-006>008-014>016-023>028-280900-
NORTHWEST WISCONSIN

CITY           SKY/WX    TMP DP  RH WIND       PRES   REMARKS
SUPERIOR ARPT  CLEAR     65  63  96 CALM      29.88F
ASHLAND        CLEAR     62  61  96 CALM      29.92F
HAYWARD        CLEAR     71  64  78 SE7       29.93F
SIREN          CLEAR     72  68  88 SE7       29.89F
CUMBERLAND     CLEAR     68  64  88 SE7       29.93F
RICE LAKE      CLEAR     71  65  83 SE8       29.94F
CHETEK         CLEAR     70  67  89 SE6       29.94F
LADYSMITH      CLEAR     70  64  80 SE5       29.98F
EAU CLAIRE     CLEAR     72  66  81 SE9       29.92F
MENOMONIE      CLEAR     70  68  94 E7        29.92F
NEW RICHMOND   CLEAR     71  69  96 SE8       29.90F
OSCEOLA        CLEAR     73  73 100 SE7       29.91F
$$

WIZ003>005-009-010-017-018-280900-
NORTH CENTRAL WISCONSIN

CITY           SKY/WX    TMP DP  RH WIND       PRES   REMARKS
MANITOWISH WTR CLEAR     67  64  90 S5        29.99F
ARBOR VITAE    CLEAR     72  64  77 SE7       30.00F
WOODRUFF       CLEAR     72  64  77 SE7       30.00F
RHINELANDER    CLEAR     64  60  87 SE5       30.02F
EAGLE RIVER    CLEAR     64  62  94 S5        30.02F
LAND O LAKES   CLEAR     58  58  99 CALM      30.03F
PHILLIPS       CLEAR     68  63  84 SE3       29.98F
TOMAHAWK       CLEAR     64  61  90 CALM      30.01F
MEDFORD        CLEAR     67  62  85 SE5       30.00F
MERRILL        NOT AVBL
$$

WIZ029-030-035-036-043>047-280900-
CENTRAL WISCONSIN

CITY           SKY/WX    TMP DP  RH WIND       PRES   REMARKS
WAUSAU         CLEAR     65  62  90 E7        29.99F
MOSINEE        CLEAR     64  63  94 E6        30.02F
MARSHFIELD     CLEAR     69  60  73 S6        29.99F
STEVENS POINT  CLEAR     62  60  93 CALM      30.01F
WAUPACA        CLEAR     64  64  98 CALM      30.02S
WAUTOMA        NOT AVBL
WISC RAPIDS    CLEAR     69  61  75 SE6       30.00F
CAMP DOUGLAS   CLEAR     63  63 100 E5        29.98F
$$

WIZ011>013-019>022-031-037>040-048>050-280900-
NORTHEAST WISCONSIN

CITY           SKY/WX    TMP DP  RH WIND       PRES   REMARKS
ANTIGO         CLEAR     62  61  95 S6        30.04F
SHAWANO        CLEAR     67  63  86 CALM      30.02S
OCONTO         CLEAR     59  59 100 CALM      30.01S
STURGEON BAY   CLEAR     66  61  82 S7        30.04S
GREEN BAY      CLEAR     61  59  93 CALM      30.02S FOG
MANITOWOC      NOT AVBL
APPLETON       CLEAR     68  63  83 SE5       30.03F
CLINTONVILLE   CLEAR     61  59  94 CALM      30.01F FOG
OSHKOSH        CLEAR     60  58  92 S5        30.01F
$$

WIZ032>034-041-042-053>061-280900-
SOUTHWEST WISCONSIN

CITY           SKY/WX    TMP DP  RH WIND       PRES   REMARKS
LA CROSSE      CLEAR     73  68  84 SE7       29.93F
SPARTA         CLEAR     68  64  85 E6        29.97F
VIROQUA        CLEAR     69  69 100 SE8       29.98F
BOSCOBEL       CLEAR     68  66  93 CALM      29.97F
PRAIRIE DU CHI CLEAR     71  68  89 E7        29.94F
PLATTEVILLE    CLEAR     69  66  89 E7        29.99S
$$

WIZ056-057-062-063-064-067-068-280900-
SOUTH CENTRAL WISCONSIN

CITY           SKY/WX    TMP DP  RH WIND       PRES   REMARKS
REEDSBURG      CLEAR     68  64  85 CALM      29.99S
BARABOO/DELLS  CLEAR     71  61  71 CALM      30.00S
LONE ROCK      NOT AVBL
MINERAL POINT  CLEAR     70  63  78 SE6       30.01S
MADISON        CLEAR     70  62  76 SE3       30.00S
MIDDLETON      CLEAR     70  64  80 SE5       30.01S
WATERTOWN      CLEAR     64  64 100 E3        30.02S
MONROE         CLEAR     66  63  88 E6        30.00F
JANESVILLE     CLEAR     66  63  88 CALM      30.00F
$$

WIZ051-052-058>065-066-070>072-280900-
SOUTHEAST WISCONSIN

CITY           SKY/WX    TMP DP  RH WIND       PRES   REMARKS
MILWAUKEE      PTCLDY    69  63  81 NW5       30.02F
WAUKESHA       CLEAR     61  59  94 CALM      30.03F
MILWAUKEE/TIMM CLEAR     64  61  88 CALM      30.03F
RACINE         CLEAR     67  63  87 CALM      30.03F
BURLINGTON     CLEAR     58  58  99 CALM      30.02F FOG
KENOSHA        CLEAR     61  60  97 N3        30.02F FOG
FOND DU LAC    CLEAR     64  62  93 S3        30.02F
SHEBOYGAN      CLEAR     58  56  93 CALM      30.03F FOG
WEST BEND      PTCLDY    59  55  88 CALM      30.03F
JUNEAU           N/A     66  61  84 E5        30.04S
$$

LSZ147-162-280900-
LAKE SUPERIOR

STATION/POSITION TIME  TEMP    WIND        PRES    WAVE
                       AIR SEA DIR/SP/G            HT/PER
                 (UTC) (F)     (DEG/KT/KT) (MB)    (FT/S)
W MID LAKE BUOY  0650   66 62  170/  6/  6 1014.1F   0
DEVILS ISLAND    0700   73     150/  8/ 10 1013.2F
PORT WING        0700   76     150/  5/ 11 1012.5F
SAXON HARBOR     0700   72                 1013.2F
$$

LMZ867-665-643>646-280900-
LAKE MICHIGAN

STATION/POSITION TIME  TEMP    WIND        PRES    WAVE
                       AIR SEA DIR/SP/G            HT/PER
                 (UTC) (F)     (DEG/KT/KT) (MB)    (FT/S)
CHAMBERS ISLAND  0700   69     180/  2/  4 1016.6S
S GREEN BAY BUOY 0530   76 76  200/  4/  6 1018.1
N MID LAKE BUOY  0650   70 69  180/  6/  6 1016.3F   0
NORTHPORT PIER   0700   70     200/  4/  7 1016.6S
SISTER BAY       0714   69     160/  9/ 11   N/A
ALGOMA LAKESHORE 0712             CALM       N/A
KEWAUNEE LAKESHO 0700   65     300/  2/  3 1016.4F
SHEBOYGAN LAKESH 0700   72     220/  2/  2 1017.1F
PORT WASHINGTON  0700   68     270/  3/  4 1017.3F
ATWATER BUOY     0700   74     110/  6/ 10 1018.1R
MILWAUKEE LAKESH 0700   73      90/  2/  3   N/A
KENOSHA   LAKESH 0700   74      70/  4/  8 1016.3R
$$

TC  - TEMPERATURE IN CELSIUS
VSB - VISIBILITY IN STATUTE MILES
WCI - WIND CHILL INDEX
HX  - HEAT INDEX



USA.gov is the U.S. government's official web portal to all federal, state and local government web resources and services.